Simultaneous Nadir Overpasses (SNOs) Predictions

Prediction of SNOs between AQUA and METOP-A Satellite Orbit:

Table of predicted SNOs for the next 14.0 days since TLE Epoch: 4/24/2021
Index Date (AQUA) Time (AQUA) Lat,Lon (AQUA) SZA (AQUA ) Date (METOP-A) Time (METOP-A) Lat,Lon (METOP-A) SZA (METOP-A ) Distance(km) Time Diff (sec)
1 04/24/2021 05:50:57 -77.28,-103.31 115.27 04/24/2021 05:50:37 -77.31,-103.31 115.24 3.18 20
2 04/24/2021 06:40:25 77.31, 64.20 64.76 04/24/2021 06:41:17 77.31, 64.03 64.76 4.26 52
3 04/27/2021 01:25:12 -77.29, -36.94 116.17 04/27/2021 01:25:00 -77.29, -37.05 116.16 2.65 12
4 04/27/2021 02:14:40 77.33, 130.55 63.87 04/27/2021 02:15:39 77.33, 130.46 63.86 2.18 59
5 04/29/2021 20:09:56 77.09,-137.34 62.71 04/29/2021 20:08:47 77.02,-139.14 62.78 45.55 69
6 04/29/2021 20:59:26 -77.32, 29.41 117.03 04/29/2021 20:59:21 -77.31, 29.39 117.03 0.52 5
7 04/29/2021 21:48:54 77.36,-163.13 63.02 04/29/2021 21:50:00 77.35,-163.12 63.00 1.13 66
8 05/02/2021 15:44:14 77.31, -71.76 62.13 05/02/2021 15:43:02 77.30, -71.65 62.13 2.70 72
9 05/02/2021 16:33:41 -77.35, 95.73 117.84 05/02/2021 16:33:43 -77.34, 95.82 117.86 2.64 2
10 05/02/2021 17:23:08 77.35, -96.65 62.16 05/02/2021 17:24:21 77.41, -96.52 62.19 7.60 73
11 05/05/2021 11:18:28 77.31, -5.30 61.31 05/05/2021 11:17:24 77.32, -5.25 61.33 1.87 64
12 05/05/2021 12:07:55 -77.34, 162.20 118.67 05/05/2021 12:08:05 -77.36, 162.24 118.66 2.12 10



Historial Predications of SNOs between AQUA and METOP-A
